Location: Kergrist
(48.3096°N, 3.3178°W)
Time: 07:49:24
(UTC+00:00)

Daily predictions for brighter satellites

Satellite Brightness Start Highest point End
(mag) Time Altitude Azimuth Time Altitude Azimuth Time Altitude Azimuth
SPOT 5 4.0 20:49:20 10° SE 20:53:45 31° ENE 20:57:59 10° N
USA 245 4.5 20:49:24 10° SSE 20:54:28 59° ENE 21:00:23 10° N
Cosmos 1975 Rocket 3.2 20:50:21 10° S 20:54:38 61° E 20:59:01 10° NNE
Cosmos 1802 Rocket 4.5 20:48:48 10° N 20:54:53 49° ENE 21:01:00 10° SSE
Cosmos 1459 Rocket 4.1 20:50:24 10° N 20:56:24 59° ENE 21:02:23 10° SSE
Cosmos 1741 Rocket 4.3 20:55:54 10° NNW 21:01:09 70° WSW 21:06:24 10° SSE
Cosmos 1300 4.2 20:59:47 10° NNE 21:02:53 23° ENE 21:05:57 10° SE
Lacrosse 5 3.9 21:00:19 10° W 21:03:51 19° WSW 21:07:23 10° SSW
Meteor 1-16 Rocket 4.1 21:00:38 10° N 21:06:07 84° ENE 21:11:28 10° SSE
Resurs 01 Rocket 2.2 21:01:55 10° S 21:06:14 57° W 21:10:36 10° NNW
Ariane Rocket 4.4 21:05:13 10° SSW 21:09:55 37° W 21:14:39 10° NNW
Cosmos 1340 3.6 21:08:01 10° SSE 21:11:20 30° E 21:14:40 10° NNE
Landsat 7 4.3 21:09:09 10° S 21:13:51 60° W 21:18:35 10° NNW
Cosmos 2322 4.1 21:09:00 10° S 21:14:16 42° ESE 21:19:33 10° NE
Aureole 1 Rocket 4.3 21:08:17 10° NNW 21:14:18 83° WSW 21:21:58 10° SSE
Cosmos 2278 Rocket 3.6 21:10:11 10° NNW 21:15:02 28° NE 21:19:52 10° ESE
COSMOS 2428 3.6 21:11:09 10° SSE 21:16:05 31° ESE 21:21:03 10° NE
SPOT 3 Rocket 4.1 21:11:01 10° S 21:16:08 60° WSW 21:21:18 10° NNW
Cosmos 1844 Rocket 2.9 21:10:47 10° NNW 21:16:27 71° WSW 21:22:05 10° SSE
Cosmos 2237 4.5 21:14:48 10° SSW 21:20:29 75° WNW 21:26:13 10° NNE
Cosmos 1867 4.3 21:18:05 10° NNW 21:23:26 49° NE 21:28:44 10° ESE
Cosmos 968 Rocket 4.0 21:24:00 10° NNW 21:28:57 47° ENE 21:33:29 12° SE
Cosmos 1908 3.8 21:27:39 10° NNW 21:31:29 57° W 21:35:15 10° S
JB-3 4.3 21:27:50 10° NNE 21:31:51 74° ESE 21:35:53 10° S
Cosmos 1110 Rocket 4.2 21:28:57 10° SSW 21:34:08 79° WNW 21:39:23 10° NNE
Cosmos 1626 2.1 21:30:32 10° S 21:34:13 86° E 21:37:56 10° N
Cosmos 1544 Rocket 3.7 21:30:24 10° N 21:34:53 82° W 21:39:19 10° S
FALCON 9 DEB 3.8 21:32:21 10° W 21:35:44 58° NNW 21:39:08 10° ENE
Cosmos 2061 Rocket 4.1 21:30:12 10° N 21:36:40 76° E 21:42:50 11° SSE
Cosmos 2123 Rocket 4.1 21:30:49 10° S 21:37:01 65° E 21:43:17 10° NNE
Meteor 2-10 Rocket 4.3 21:34:00 10° N 21:38:41 36° ENE 21:42:36 13° SE
Cosmos 1455 Rocket 4.0 21:34:56 10° NNW 21:39:13 46° W 21:43:28 10° SSW
Cosmos 2233 Rocket 4.4 21:34:24 10° N 21:40:23 50° ENE 21:45:35 14° SSE
ARIANE 5 R/B 2.8 21:38:34 11° S 21:42:54 77° WSW 21:47:26 10° NNW
Cosmos 1346 Rocket 4.0 21:47:03 16° SE 21:49:23 27° E 21:52:47 10° NE
Cosmos 405 2.9 21:47:26 10° NNW 21:50:53 80° W 21:53:33 16° S
ATLAS CENTAUR R/B 2.0 21:46:43 10° NW 21:50:58 52° WSW 21:54:30 15° SSE
Cosmos 2333 4.3 21:47:39 10° SSW 21:53:24 87° WNW 21:59:10 10° NNE
BREEZE-M DEB (TANK) 4.5 21:41:34 10° SSW 21:54:08 34° SSE 21:58:15 10° E
ATLAS 3B R/B 2.6 21:49:28 10° SSW 21:56:01 79° SE 22:02:48 10° NE
SL-4 R/B 2.9 21:54:34 10° SSW 21:58:07 27° SE 22:01:26 10° E
FALCON 9 DEB 2.7 21:56:53 10° WSW 22:00:00 75° SSE 22:03:08 10° ENE
Cosmos 2016 Rocket 4.3 21:59:05 10° NNW 22:05:08 66° W 22:11:00 11° S
CZ-4B DEB 4.2 22:03:26 22° SSE 22:05:20 79° ENE 22:08:31 10° N
Cosmos 2219 Rocket 2.2 22:00:15 10° SSW 22:05:56 85° ESE 22:11:39 10° NNE
Cosmos 1025 Rocket 4.1 22:02:29 10° SSW 22:06:42 45° WNW 22:10:55 10° N
Meteor 2-5 Rocket 3.7 22:01:12 10° S 22:06:45 80° E 22:12:24 10° NNE
Cosmos 1607 4.4 22:01:02 10° NW 22:07:24 59° NE 22:12:53 14° ESE
Lacrosse 5 rocket 2.1 22:03:51 10° WSW 22:07:24 48° NNW 22:10:55 10° NE
Cosmos 2333 Rocket 2.3 22:01:50 10° SSW 22:07:36 83° WNW 22:13:22 10° NNE
ERS-1 Rocket 3.3 22:04:07 13° S 22:08:31 61° W 22:13:31 10° NNW
Geosat 4.3 22:04:47 16° SSE 22:08:41 60° WSW 22:13:41 10° NW
Cosmos 1536 Rocket 3.7 22:05:22 10° SSW 22:09:50 77° W 22:14:18 10° N
Cosmos 2228 3.3 22:06:56 10° N 22:11:19 58° ENE 22:14:06 21° SSE
FALCON 9 DEB 3.2 22:12:29 10° WSW 22:15:33 68° NNW 22:18:40 10° ENE
Cosmos 1725 Rocket 4.4 22:13:30 10° NNW 22:19:34 60° W 22:25:09 12° S
USA 215 4.0 22:15:19 10° ENE 22:20:59 30° SE 22:25:28 15° S
SL-24 R/B 4.3 22:16:09 10° N 22:21:00 88° E 22:24:49 17° S
SL-14 R/B 4.3 22:17:35 10° SSW 22:21:27 44° WNW 22:25:20 10° N
FALCON 9 DEB 3.1 22:20:29 10° WSW 22:23:36 73° NNW 22:26:44 10° ENE
Terra 2.2 22:20:12 17° S 22:23:46 60° WSW 22:28:31 10° NNW
SL-16 R/B 4.0 22:23:55 13° ESE 22:25:37 15° E 22:28:38 10° ENE
FALCON 9 DEB 3.4 22:23:04 10° WSW 22:26:09 62° NNW 22:29:15 10° ENE
Cosmos 2237 Rocket 2.7 22:23:45 20° SSE 22:27:11 41° ESE 22:32:25 10° NE
Cosmos 1455 2.9 22:24:33 10° N 22:28:12 41° ENE 22:29:59 24° SE
Cosmos 1184 Rocket 4.1 22:29:49 23° ESE 22:30:27 24° E 22:33:09 10° NE
Cosmos 2360 Rocket 4.1 22:25:48 10° WSW 22:30:48 32° NW 22:35:50 10° NNE
SPOT 5 4.0 22:27:29 12° SSW 22:31:44 38° W 22:36:16 10° NNW
H-2A R/B 3.5 22:29:07 10° NNE 22:33:13 80° WNW 22:36:19 17° SSW
Cosmos 1503 Rocket 4.1 22:29:10 10° NNW 22:34:34 74° ENE 22:37:58 23° SSE
Cosmos 1300 4.2 22:35:11 10° NNW 22:38:32 29° W 22:41:15 14° SSW
Meteor 1-24 Rocket 3.8 22:33:33 12° SSW 22:38:32 71° WNW 22:44:05 10° N
GEOS 3 Rocket 4.1 22:38:08 15° ESE 22:42:34 59° NE 22:47:49 10° NW
ATLAS CENTAUR R/B 3.6 22:40:45 23° SSE 22:43:18 35° ESE 22:52:55 10° NE
USA 267 3.8 22:49:36 10° E 22:56:00 60° NNE 23:02:25 10° NW
Okean 1-7 Rocket 4.2 22:54:15 28° SE 22:56:04 42° E 23:00:15 10° NNE
Cosmos 389 Rocket 3.3 22:53:23 10° NNW 22:56:38 41° W 22:58:04 26° SSW
GENESIS II 4.1 22:54:50 15° SW 22:57:59 89° NW 23:01:54 10° NE
BREEZE-M DEB (TANK) 2.4 22:55:13 10° W 22:58:09 86° NNW 23:05:48 10° ENE
Cosmos 2278 Rocket 2.4 22:53:57 10° NNW 22:59:33 62° WSW 23:02:45 26° S
COSMOS 2428 3.6 22:54:32 10° SW 23:00:07 51° NW 23:05:44 10° NNE
Cosmos 1726 Rocket 3.7 22:57:17 10° NNW 23:01:44 68° W 23:03:59 28° S
Cosmos 2058 Rocket 3.0 22:57:55 10° N 23:02:22 77° E 23:04:24 32° SSE
Centaur D AC-29 4.4 23:00:33 10° WSW 23:05:59 12° SW 23:09:10 10° SSW
Cosmos 2034 Rocket 4.2 23:00:16 10° N 23:06:23 59° ENE 23:10:01 25° SSE
NOSS 0 Rocket 4.0 23:01:54 10° SSW 23:08:03 83° WNW 23:14:21 10° NNE
SJ 16-02 2.5 23:10:57 10° N 23:14:59 34° ENE 23:17:27 19° ESE
Meteor 1-21 Rocket 4.2 23:14:30 27° S 23:17:40 74° E 23:23:25 10° NNE
Cosmos 1777 Rocket 4.1 23:14:48 10° NNW 23:20:07 77° ENE 23:22:56 28° SSE
Spot 4 3.8 23:20:17 31° S 23:22:34 75° WSW 23:27:22 10° NNW
Cosmos 1892 Rocket 3.9 23:21:07 25° SSW 23:23:35 61° WNW 23:28:01 10° N
GP-B 4.4 23:20:24 10° NNE 23:24:17 29° E 23:26:01 22° ESE
Cosmos 1943 Rocket 2.8 23:19:41 10° NNW 23:25:03 49° NE 23:28:53 18° SE
Meteor 1-4 Rocket 2.7 23:22:19 10° N 23:25:44 55° ENE 23:26:36 41° SE
Cosmos 1441 Rocket 3.1 23:29:44 39° SSW 23:31:04 85° W 23:34:54 10° N
ALOS 2 2.5 23:35:17 36° SSE 23:37:03 90° ENE 23:41:28 10° NNW
SL-4 R/B 1.8 23:33:23 10° WSW 23:37:27 84° NNW 23:41:12 10° ENE
Tsikada Rocket 4.2 23:34:13 28° SSE 23:37:28 60° E 23:43:31 10° NNE
Cosmos 1980 4.2 23:33:01 12° SW 23:38:10 60° WNW 23:43:49 10° NNE
USA 229 DEB 4.4 23:38:46 25° SSE 23:41:00 32° ESE 23:46:49 10° NE
USA 229 4.5 23:38:53 25° SSE 23:41:06 31° ESE 23:46:55 10° NE
Cosmos 1703 3.6 23:44:02 33° SW 23:45:35 58° WNW 23:49:30 10° N
Lacrosse 5 rocket 3.8 23:44:18 10° WNW 23:47:09 21° N 23:49:58 10° NE
ATLAS 3B R/B 4.3 23:41:23 10° W 23:47:22 35° NNW 23:53:36 10° NE
NOSS 3-1 (C) 3.5 23:46:44 32° S 23:48:55 49° ESE 23:54:52 10° NE
Cosmos 2219 Rocket 4.5 23:46:15 10° W 23:50:38 22° NW 23:55:02 10° N
Cosmos 724 4.4 23:44:57 10° NW 23:51:07 73° WSW 23:54:20 29° SSE
Cosmos 1626 Rocket 3.5 23:49:24 37° S 23:51:09 88° W 23:55:37 10° N
Elektron 1 3.5 23:50:17 10° NW 23:53:21 84° SW 23:53:44 64° SSE
Cosmos 1408 4.4 23:53:09 18° ESE 23:53:59 19° E 23:56:41 10° NE
OPS 6432 4.3 23:51:08 10° NW 23:54:07 75° NE 23:54:58 46° ESE
